When you browse on this site, cookies collect data to enhance your experience and personalize the content and advertising you see.
Visit our Privacy Policy to learn more. By continuing to use the site, you agree to this use of cookies and data.
  • Em Portugal
  • Lista de países
  • Para 7 dias
  • Temperatura da água
  • Mapas de satélite
  • Mapa do tempo
  • Widgets de tempo
  • user-avatar
    Iniciar Sessão

    Previsão horária em Rychowo

    Hoje, 21 Março, Quinta-feira

    Tempo Temperatura Precipitação Vento Pressão Humidade
    00:00 +6°C° 0 mm 4 m/s 768 mmHg 93%
    01:00 +7°C° 0 mm 3 m/s 768 mmHg 94%
    02:00 +6°C° 0 mm 4 m/s 768 mmHg 95%
    03:00 +6°C° 0 mm 4 m/s 768 mmHg 95%
    04:00 +5°C° 0 mm 4 m/s 768 mmHg 96%
    05:00 +5°C° 0 mm 4 m/s 768 mmHg 95%
    06:00 +5°C° 0 mm 4 m/s 768 mmHg 95%
    07:00 +5°C° 0 mm 4 m/s 768 mmHg 94%
    08:00 +6°C° 0 mm 4 m/s 768 mmHg 93%
    09:00 +6°C° 0 mm 5 m/s 768 mmHg 91%
    10:00 +6°C° 0 mm 5 m/s 768 mmHg 89%
    11:00 +8°C° 0 mm 5 m/s 768 mmHg 85%
    12:00 +9°C° 0 mm 5 m/s 768 mmHg 81%
    13:00 +10°C° 0 mm 6 m/s 768 mmHg 81%
    14:00 +10°C° 0 mm 5 m/s 768 mmHg 82%
    15:00 +10°C° 0 mm 5 m/s 768 mmHg 82%
    16:00 +10°C° 0 mm 5 m/s 767 mmHg 83%
    17:00 +10°C° 0 mm 4 m/s 767 mmHg 85%
    18:00 +10°C° 0 mm 4 m/s 767 mmHg 88%
    19:00 +8°C° 0 mm 4 m/s 768 mmHg 91%
    20:00 +8°C° 0 mm 4 m/s 768 mmHg 90%
    21:00 +8°C° 0 mm 5 m/s 768 mmHg 90%
    22:00 +8°C° 0 mm 5 m/s 768 mmHg 89%
    23:00 +7°C° 0 mm 5 m/s 768 mmHg 90%

    Amanhã, 22 Março, Sexta-feira

    Tempo Temperatura Precipitação Vento Pressão Humidade
    00:00 +7°C° 0 mm 4 m/s 768 mmHg 92%
    01:00 +7°C° 0 mm 4 m/s 768 mmHg 93%
    02:00 +7°C° 0 mm 3 m/s 768 mmHg 94%
    03:00 +7°C° 0 mm 3 m/s 769 mmHg 94%
    04:00 +7°C° 0 mm 3 m/s 769 mmHg 94%
    05:00 +7°C° 0 mm 2 m/s 769 mmHg 95%
    06:00 +7°C° 0 mm 2 m/s 769 mmHg 95%
    07:00 +8°C° 0 mm 1 m/s 770 mmHg 95%
    08:00 +9°C° 0 mm 1 m/s 770 mmHg 90%
    09:00 +10°C° 0 mm 1 m/s 770 mmHg 84%
    10:00 +11°C° 0 mm 1 m/s 770 mmHg 79%
    11:00 +12°C° 0 mm 1 m/s 770 mmHg 77%
    12:00 +12°C° 0 mm 1 m/s 770 mmHg 75%
    13:00 +12°C° 0 mm 0 m/s 770 mmHg 73%
    14:00 +13°C° 0 mm 1 m/s 770 mmHg 73%
    15:00 +13°C° 0 mm 1 m/s 770 mmHg 73%
    16:00 +13°C° 0 mm 1 m/s 769 mmHg 73%
    17:00 +12°C° 0 mm 2 m/s 769 mmHg 77%
    18:00 +10°C° 0 mm 2 m/s 769 mmHg 81%
    19:00 +9°C° 0 mm 2 m/s 768 mmHg 84%
    20:00 +9°C° 0 mm 2 m/s 768 mmHg 86%
    21:00 +9°C° 0 mm 3 m/s 768 mmHg 87%
    22:00 +9°C° 0 mm 3 m/s 767 mmHg 88%
    23:00 +9°C° 0 mm 3 m/s 767 mmHg 90%

    Depois de amanhã, 23 Março, Sábado

    Tempo Temperatura Precipitação Vento Pressão Humidade
    00:00 +8°C° 0 mm 3 m/s 767 mmHg 91%
    01:00 +7°C° 0 mm 4 m/s 766 mmHg 92%
    02:00 +7°C° 0 mm 4 m/s 766 mmHg 92%
    03:00 +7°C° 0 mm 4 m/s 765 mmHg 93%
    04:00 +7°C° 0 mm 4 m/s 765 mmHg 93%
    05:00 +7°C° 0 mm 4 m/s 764 mmHg 93%
    06:00 +7°C° 0 mm 4 m/s 764 mmHg 92%
    07:00 +7°C° 0 mm 4 m/s 764 mmHg 92%
    08:00 +10°C° 0 mm 4 m/s 764 mmHg 86%
    09:00 +12°C° 0 mm 4 m/s 764 mmHg 80%
    10:00 +13°C° 0 mm 4 m/s 763 mmHg 75%
    11:00 +14°C° 0 mm 4 m/s 763 mmHg 72%
    12:00 +15°C° 0 mm 5 m/s 763 mmHg 70%
    13:00 +15°C° 0 mm 5 m/s 763 mmHg 67%
    14:00 +14°C° 0 mm 6 m/s 763 mmHg 70%
    15:00 +11°C° 0 mm 6 m/s 763 mmHg 73%
    16:00 +10°C° 0 mm 6 m/s 764 mmHg 76%
    17:00 +8°C° 0 mm 6 m/s 764 mmHg 75%
    18:00 +7°C° 0 mm 5 m/s 765 mmHg 75%
    19:00 +6°C° 0 mm 5 m/s 765 mmHg 74%
    20:00 +5°C° 0 mm 4 m/s 766 mmHg 73%
    21:00 +5°C° 0 mm 4 m/s 766 mmHg 72%
    22:00 +4°C° 0 mm 3 m/s 766 mmHg 71%
    23:00 +4°C° 0 mm 3 m/s 767 mmHg 72%

    24 Março, Domingo

    Tempo Temperatura Precipitação Vento Pressão Humidade
    00:00 +3°C° 0 mm 3 m/s 767 mmHg 74%
    01:00 +3°C° 0 mm 3 m/s 767 mmHg 75%
    02:00 +3°C° 0 mm 3 m/s 767 mmHg 76%
    03:00 +3°C° 0 mm 3 m/s 767 mmHg 77%
    04:00 +3°C° 0 mm 3 m/s 767 mmHg 77%
    05:00 +3°C° 0 mm 3 m/s 767 mmHg 78%
    06:00 +3°C° 0 mm 3 m/s 767 mmHg 78%
    07:00 +3°C° 0 mm 3 m/s 767 mmHg 78%
    08:00 +4°C° 0 mm 4 m/s 767 mmHg 74%
    09:00 +5°C° 0 mm 4 m/s 767 mmHg 70%
    10:00 +6°C° 0 mm 5 m/s 767 mmHg 66%
    11:00 +6°C° 0 mm 5 m/s 767 mmHg 65%
    12:00 +6°C° 0 mm 5 m/s 767 mmHg 64%
    13:00 +6°C° 0 mm 5 m/s 767 mmHg 63%
    14:00 +6°C° 0 mm 5 m/s 766 mmHg 62%
    15:00 +6°C° 0 mm 5 m/s 766 mmHg 61%
    16:00 +5°C° 0 mm 6 m/s 766 mmHg 60%
    17:00 +5°C° 0 mm 5 m/s 766 mmHg 65%
    18:00 +4°C° 0 mm 4 m/s 766 mmHg 70%
    19:00 +3°C° 0 mm 3 m/s 765 mmHg 75%
    20:00 +3°C° 0 mm 3 m/s 765 mmHg 76%
    21:00 +3°C° 0 mm 4 m/s 765 mmHg 76%
    22:00 +3°C° 0 mm 4 m/s 765 mmHg 76%
    23:00 +3°C° 0 mm 4 m/s 765 mmHg 77%

    25 Março, Segunda-feira

    Tempo Temperatura Precipitação Vento Pressão Humidade
    00:00 +1°C° 0 mm 5 m/s 765 mmHg 77%
    01:00 +1°C° 0 mm 5 m/s 764 mmHg 78%
    02:00 +1°C° 0 mm 5 m/s 764 mmHg 81%
    03:00 +1°C° 0 mm 5 m/s 763 mmHg 84%
    04:00 0°C° 0 mm 5 m/s 763 mmHg 87%
    05:00 +1°C° 0.2 mm 6 m/s 762 mmHg 86%
    06:00 0°C° 0.2 mm 7 m/s 762 mmHg 85%
    07:00 0°C° 0.2 mm 8 m/s 761 mmHg 84%
    08:00 +1°C° 0.5 mm 8 m/s 761 mmHg 81%
    09:00 +2°C° 0.5 mm 9 m/s 760 mmHg 79%
    10:00 +2°C° 0.5 mm 9 m/s 760 mmHg 76%
    11:00 +3°C° 0.3 mm 10 m/s 760 mmHg 70%
    12:00 +3°C° 0.3 mm 10 m/s 759 mmHg 64%
    13:00 +5°C° 0.3 mm 10 m/s 759 mmHg 58%
    14:00 +5°C° 0.1 mm 10 m/s 759 mmHg 58%
    15:00 +3°C° 0.1 mm 10 m/s 759 mmHg 57%
    16:00 +3°C° 0.1 mm 10 m/s 759 mmHg 57%
    17:00 +2°C° 0 mm 9 m/s 759 mmHg 59%
    18:00 +2°C° 0 mm 8 m/s 759 mmHg 62%
    19:00 +1°C° 0 mm 8 m/s 759 mmHg 64%
    20:00 +2°C° 0 mm 7 m/s 760 mmHg 64%
    21:00 +3°C° 0 mm 7 m/s 760 mmHg 65%
    22:00 +3°C° 0 mm 7 m/s 761 mmHg 65%
    23:00 +2°C° 0 mm 6 m/s 762 mmHg 70%

    26 Março, Terça-feira

    Tempo Temperatura Precipitação Vento Pressão Humidade
    00:00 +2°C° 0 mm 5 m/s 762 mmHg 75%
    01:00 +1°C° 0 mm 4 m/s 763 mmHg 81%
    02:00 +1°C° 0 mm 4 m/s 764 mmHg 83%
    03:00 0°C° 0 mm 4 m/s 764 mmHg 86%
    04:00 0°C° 0 mm 4 m/s 765 mmHg 89%
    05:00 +1°C° 0 mm 3 m/s 765 mmHg 89%
    06:00 +1°C° 0 mm 3 m/s 766 mmHg 88%
    07:00 +1°C° 0 mm 3 m/s 766 mmHg 88%
    08:00 +3°C° 0 mm 3 m/s 767 mmHg 79%
    09:00 +4°C° 0 mm 3 m/s 767 mmHg 71%
    10:00 +6°C° 0 mm 4 m/s 768 mmHg 62%
    11:00 +6°C° 0 mm 4 m/s 768 mmHg 58%
    12:00 +7°C° 0 mm 4 m/s 768 mmHg 55%
    13:00 +8°C° 0 mm 4 m/s 768 mmHg 51%
    14:00 +7°C° 0 mm 5 m/s 767 mmHg 52%
    15:00 +7°C° 0 mm 5 m/s 767 mmHg 53%
    16:00 +7°C° 0 mm 5 m/s 766 mmHg 54%
    17:00 +6°C° 0 mm 4 m/s 766 mmHg 59%
    18:00 +5°C° 0 mm 4 m/s 766 mmHg 64%
    19:00 +4°C° 0 mm 3 m/s 766 mmHg 69%
    20:00 +4°C° 0 mm 4 m/s 766 mmHg 74%
    21:00 +5°C° 0 mm 5 m/s 765 mmHg 78%
    22:00 +5°C° 0 mm 5 m/s 765 mmHg 83%
    23:00 +5°C° 0 mm 5 m/s 765 mmHg 82%
    Mostrar mais